Location: Favalello
(42.2939°N, 9.2706°E)
Time: 00:01:57
(UTC+00:00)

H-2A R/B - Pass Details

Date: 06 December 2019
Orbit: 501 x 541 km, 97.3° (Epoch: 19 January)

Event Time Altitude Azimuth Distance (km) Brightness Sun altitude
Rises 17:20:59 0° 186° (S) 2,614 6.6 -16.2°
Reaches altitude 10° 17:23:12 10° 195° (SSW) 1,726 5.8 -16.6°
Maximum altitude 17:26:38 35° 262° (W) 838 4.4 -17.2°
Drops below altitude 10° 17:30:04 10° 330° (NNW) 1,725 5.5 -17.8°
Sets 17:32:17 0° 339° (NNW) 2,611 6.4 -18.2°
